Flag for Germany Weather past 2 weeks in Geislingen an der Steige, Baden-Württemberg, Germany

Now
74 °F

Partly sunny.


Feels Like: 77 °F
Forecast: 58 / 88 °F
Wind: 6 mph from Southwest

Location: Stoetten

Current Time: Aug 28, 2015 at 2:58:31 PM

Latest Report: Aug 28, 2015 at 2:00 PM


Visibility: 47 mi

Pressure: 30.04 "Hg

Humidity: 54%

Dew point: 56 °F

Location of Geislingen an der SteigeLocation

Historic Weather in Geislingen an der Steige — Graph

°F

Geislingen an der Steige temperature yesterday

Maximum temperature yesterday: 81 °F (at 2:00 PM)
Minimum temperature yesterday: 64 °F (at 7:00 AM)
Average temperature yesterday: 72 °F

Past Weeks' High & Low Weather Summary

 TemperatureHumidityPressure
High88 °F (Aug 13, 5:00 PM)100% (Aug 15, 11:00 PM)30.28 "Hg (Aug 15, 11:00 PM)
Low48 °F (Aug 18, 7:00 AM)26% (Aug 13, 6:00 PM)29.67 "Hg (Aug 24, 3:00 PM)
Average61 °F75%29.97 "Hg
* Reported Aug 13 2:00 PM — Aug 28 2:00 PM, Geislingen an der Steige, Weather by CustomWeather, © 2015

Note: Actual official high and low records may vary slightly from our data, if they occured in-between our weather recording intervals... More about our weather records

Advertising

Geislingen an der Steige weather history for previous 24 hours

 ConditionsComfort  
Time TempWeatherWind HumidityBarometerVisibility
2:00 PM
Fri, Aug 28
74 °FPartly sunny.6 mph54%30.04 "Hg47 mi
1:00 PM74 °FOvercast.5 mph57%30.03 "Hg47 mi
12:00 PM73 °FOvercast.3 mph62%30.02 "Hg47 mi
11:00 AM70 °FOvercast.2 mph70%30.02 "Hg43 mi
10:00 AM67 °FPartly sunny.3 mph75%30.02 "Hg40 mi
9:00 AM64 °FOvercast.3 mph84%30.03 "Hg37 mi
8:00 AM63 °FOvercast.3 mph89%30.01 "Hg31 mi
7:00 AM63 °FOvercast.2 mph88%29.99 "Hg22 mi
5:00 AM63 °FOvercast.N/A87%29.99 "Hg22 mi
4:00 AM64 °FOvercast.8 mph83%29.97 "Hg25 mi
3:00 AM66 °FPassing clouds.7 mph69%29.95 "Hg37 mi
2:00 AM71 °FPassing clouds.8 mph55%29.88 "Hg43 mi
1:00 AM73 °FOvercast.10 mph48%29.86 "Hg43 mi
11:00 PM
Thu, Aug 27
71 °FPassing clouds.6 mph51%29.86 "Hg40 mi
10:00 PM73 °FClear.5 mph46%29.85 "Hg43 mi
9:00 PM75 °FPassing clouds.3 mph41%29.84 "Hg43 mi
8:00 PM76 °FPartly sunny.3 mph39%29.83 "Hg47 mi
7:00 PM79 °FPartly sunny.5 mph36%29.82 "Hg47 mi
6:00 PM81 °FScattered clouds.5 mph33%29.81 "Hg47 mi
5:00 PM81 °FPartly sunny.6 mph33%29.82 "Hg47 mi
4:00 PM80 °FPartly sunny.6 mph34%29.83 "Hg47 mi
3:00 PM81 °FPartly sunny.6 mph33%29.84 "Hg47 mi
2:00 PM81 °FPartly sunny.3 mph36%29.84 "Hg47 mi
Weather by CustomWeather, © 2015

See weather overviewHow to use our weather pages